Flag for India Weather past 2 weeks in Fatehpur, Uttar Pradesh, India

Now
73 °F

Light rain. Cloudy.


Feels Like: 72 °F
Forecast: 74 / 96 °F
Wind: 3 mph from Northeast

Location: Lucknow / Amausi

Current Time: Oct 1, 2014 at 10:37:56 AM

Latest Report: Oct 1, 2014 at 9:30 AM


Visibility: 2 mi

Pressure: 29.95 "Hg

Humidity: 89%

Dew point: 70 °F

Location of FatehpurLocation

Historic Weather in Fatehpur — Graph

°F

Fatehpur temperature yesterday

Maximum temperature yesterday: 100 °F (at 3:00 PM)
Minimum temperature yesterday: 73 °F (at 5:30 AM)
Average temperature yesterday: 87 °F

Past Weeks' High & Low Weather Summary

 TemperatureHumidityPressure
High102 °F (Sep 19, 11:00 AM)100% (Sep 16, 10:00 PM)29.95 "Hg (Sep 16, 10:00 PM)
Low68 °F (Oct 1, 6:00 AM)41% (Sep 26, 1:00 PM)29.53 "Hg (Sep 16, 3:30 PM)
Average87 °F70%29.71 "Hg
* Reported Sep 16 8:30 AM — Oct 1 9:00 AM, Fatehpur, Weather by CustomWeather, © 2014

Note: Actual official high and low records may vary slightly from our data, if they occured in-between our weather recording intervals... More about our weather records

Advertising

Fatehpur weather history for previous 24 hours

 ConditionsComfort  
Time TempWeatherWind HumidityBarometerVisibility
9:00 AM
Oct 1
73 °FMore clouds than sun.5 mph89%29.95 "Hg1 mi
8:30 AM72 °FThunderstorms. Cloudy.5 mph94%29.95 "Hg1 mi
8:00 AM72 °FThunderstorms. More clouds than sun.5 mph94%29.92 "Hg1 mi
7:00 AM70 °FMore clouds than sun.2 mph94%29.92 "Hg1 mi
6:30 AM68 °FThunderstorms. More clouds than sun.2 mph100%29.89 "Hg1 mi
6:00 AM68 °FThunderstorms. Mostly cloudy.2 mph100%29.86 "Hg1 mi
4:00 AM73 °FPassing clouds.2 mph89%29.83 "Hg2 mi
3:00 AM73 °FPassing clouds.2 mph89%29.83 "Hg2 mi
2:00 AM73 °FPassing clouds.2 mph89%29.83 "Hg2 mi
1:00 AM73 °FPassing clouds.2 mph83%29.86 "Hg2 mi
12:00 AM75 °FPartly cloudy.5 mph78%29.86 "Hg2 mi
11:00 PM
Sep 30
81 °FPartly cloudy.7 mph84%29.89 "Hg2 mi
10:00 PM82 °FThunderstorms. Partly cloudy.6 mph79%29.89 "Hg2 mi
9:00 PM82 °FThunderstorms. Partly cloudy.9 mph79%29.89 "Hg2 mi
8:00 PM82 °FPartly cloudy.7 mph74%29.86 "Hg2 mi
7:30 PM82 °FPassing clouds.7 mph74%29.83 "Hg3 mi
7:00 PM82 °FPartly cloudy.9 mph74%N/A3 mi
6:30 PM84 °FPartly cloudy.7 mph74%29.80 "Hg3 mi
6:00 PM86 °FPartly sunny.7 mph70%29.80 "Hg3 mi
5:30 PM91 °FBroken clouds.7 mph63%29.80 "Hg3 mi
5:00 PM97 °FPartly sunny.6 mph53%29.80 "Hg3 mi
4:30 PM99 °FPartly sunny.7 mph50%29.77 "Hg3 mi
4:00 PM100 °FScattered clouds.8 mph47%29.77 "Hg3 mi
3:30 PM100 °FScattered clouds.8 mph47%29.77 "Hg3 mi
3:00 PM100 °FHaze.8 mph47%29.80 "Hg3 mi
2:30 PM99 °FHaze.8 mph50%29.80 "Hg3 mi
2:00 PM99 °FHaze.7 mph50%29.83 "Hg3 mi
1:30 PM99 °FHaze.7 mph50%29.83 "Hg3 mi
1:00 PM97 °FHaze.7 mph53%29.83 "Hg3 mi
12:30 PM97 °FHaze.6 mph53%29.86 "Hg3 mi
12:00 PM93 °FHaze.9 mph56%29.86 "Hg3 mi
11:30 AM91 °FScattered clouds.9 mph52%29.89 "Hg3 mi
11:00 AM91 °FScattered clouds.9 mph56%29.89 "Hg3 mi
10:30 AM91 °FHaze.7 mph56%29.89 "Hg3 mi
10:00 AM90 °FHaze.7 mph59%29.89 "Hg3 mi
Weather by CustomWeather, © 2014

See weather overviewHow to use our weather pages